EW7083 Weather Reports


time (UTC)temp
F
wind
direction
speed
knots
gust
knots
rain 1hr
in
rain 24hr
in
rain mn
in
humidity
%
barometer
mb
20260509210807 71 162 0.9 3.5 0.00 0.00 0.00 100 560.1
20260509205806 71 202 0.9 3.5 0.00 0.00 0.00 100 560.1
20260509204806 71 202 0.0 0.0 0.00 0.00 0.00 100 560.1
20260509203808 70 157 0.0 0.0 0.00 0.00 0.00 100 560.1
20260509202707 70 202 0.0 0.0 0.00 0.00 0.00 100 560.1
20260509201707 70 172 2.6 5.2 0.00 0.00 0.00 100 560.1
20260509195821 70 180 0.0 0.0 0.00 0.00 0.00 100 560.1
20260509195707 70 180 0.0 0.0 0.00 0.00 0.00 100 560.1
20260509194707 70 171 4.3 7.8 0.00 0.00 0.00 100 560.1
20260509193706 70 170 2.6 4.3 0.00 0.00 0.00 100 560.1
20260509192706 70 162 4.3 7.0 0.00 0.00 0.00 100 560.1
20260509191707 70 23 1.7 3.5 0.00 0.00 0.00 100 560.1
20260509190707 70 179 6.1 8.7 0.00 0.00 0.00 100 560.1
20260509185707 70 185 1.7 5.2 0.00 0.00 0.00 100 560.1
20260509184706 70 187 4.3 6.1 0.00 0.00 0.00 100 560.1
20260509184606 70 51 0.0 2.6 0.00 0.00 0.00 100 560.1
20260509182705 69 232 0.0 0.0 0.00 0.00 0.00 100 560.1
20260509180806 68 196 1.7 4.3 0.00 0.00 0.00 100 560.1
20260509175807 68 22 0.0 0.0 0.00 0.00 0.00 100 560.1
20260509174906 67 188 4.3 8.7 0.00 0.00 0.00 100 560.1
20260509173908 67 58 0.9 4.3 0.00 0.00 0.00 100 560.1
20260509173005 66 42 0.0 0.0 0.00 0.00 0.00 100 560.1
20260509171007 65 11 0.0 3.5 0.00 0.00 0.00 100 560.1
20260509170106 65 27 1.7 4.3 0.00 0.00 0.00 100 560.1
20260509165106 65 36 1.7 5.2 0.00 0.00 0.00 100 560.1
20260509164206 65 35 0.9 5.2 0.00 0.00 0.00 100 560.1
20260509162307 66 31 1.7 5.2 0.00 0.00 0.00 100 560.1
20260509160405 66 41 4.3 8.7 0.00 0.00 0.00 100 560.1
20260509155408 66 22 0.0 0.0 0.00 0.00 0.00 100 560.1
20260509154409 66 11 0.9 4.3 0.00 0.00 0.00 100 560.1
20260509153408 65 46 1.7 4.3 0.00 0.00 0.00 100 560.1
20260509152506 65 72 0.0 0.0 0.00 0.00 0.00 100 560.1
20260509151507 64 28 0.0 3.5 0.00 0.00 0.00 100 560.1
20260509150521 63 360 0.0 0.0 0.00 0.00 0.00 100 560.1
20260509145608 63 329 0.9 2.6 0.00 0.00 0.00 100 560.1
20260509143607 62 34 0.9 3.5 0.00 0.00 0.00 100 560.1
20260509142507 62 354 0.9 5.2 0.00 0.00 0.00 100 560.1
20260509141507 61 37 0.0 3.5 0.00 0.00 0.00 100 560.1
20260509140606 61 17 0.0 2.6 0.00 0.00 0.00 100 560.1
20260509135608 61 225 0.0 0.0 0.00 0.00 0.00 100 560.1
20260509133705 60 202 0.0 0.0 0.00 0.00 0.00 100 560.1
20260509130707 60 45 0.0 0.0 0.00 0.00 0.00 100 560.1
20260509125707 59 45 0.0 0.0 0.00 0.00 0.00 100 560.1
20260509124707 58 180 0.0 0.0 0.00 0.00 0.00 100 560.1
20260509123806 58 180 0.0 0.0 0.00 0.00 0.00 100 560.1
20260509122809 58 180 0.0 0.0 0.00 0.00 0.00 100 560.1
20260509122705 58 180 0.0 0.0 0.00 0.00 0.00 100 560.1
20260509121706 57 180 0.0 0.0 0.00 0.00 0.00 100 560.1
20260509120708 57 180 0.0 0.0 0.00 0.00 0.00 100 560.1
20260509115709 57 180 0.0 0.0 0.00 0.00 0.00 100 560.1
20260509114806 57 22 0.0 0.0 0.00 0.00 0.00 100 560.1
20260509113809 57 22 0.0 0.0 0.00 0.00 0.00 100 560.1
20260509112906 56 22 0.0 0.0 0.00 0.00 0.00 100 560.1
20260509111908 56 22 0.0 0.0 0.00 0.00 0.00 100 560.1
20260509111006 55 305 0.0 0.0 0.00 0.00 0.00 100 560.1
20260509110007 55 202 0.0 0.0 0.00 0.00 0.00 100 560.1
20260509105008 55 202 0.0 0.0 0.00 0.00 0.00 100 560.1
20260509103108 55 202 0.0 0.0 0.00 0.00 0.00 100 560.1
20260509102107 55 202 0.0 0.0 0.00 0.00 0.00 100 560.1
20260509101107 55 202 0.0 0.0 0.00 0.00 0.00 100 560.1
20260509100108 55 202 0.0 0.0 0.00 0.00 0.00 100 560.1
20260509095207 55 202 0.0 0.0 0.00 0.00 0.00 100 560.1
20260509094207 55 202 0.0 0.0 0.00 0.00 0.00 100 560.1
20260509093208 55 202 0.0 0.0 0.00 0.00 0.00 100 560.1
20260509092209 55 202 0.0 0.0 0.00 0.00 0.00 100 560.1
20260509091206 55 202 0.0 0.0 0.00 0.00 0.00 100 560.1
20260509085210 56 202 0.0 0.0 0.00 0.00 0.00 100 560.1
20260509085108 56 202 0.0 0.0 0.00 0.00 0.00 100 560.1
20260509084108 57 202 0.0 0.0 0.00 0.00 0.00 100 560.1
20260509082108 58 180 0.0 0.0 0.00 0.00 0.00 100 560.1
20260509080206 58 180 0.0 0.0 0.00 0.00 0.00 100 560.1
20260509075207 58 180 0.0 0.0 0.00 0.00 0.00 100 560.1
20260509074208 58 171 0.9 2.6 0.00 0.00 0.00 100 560.1
20260509073208 57 166 1.7 3.5 0.00 0.00 0.00 100 560.1
20260509072208 58 159 0.0 0.0 0.00 0.00 0.00 100 560.1
20260509070306 57 180 0.0 0.0 0.00 0.00 0.00 100 560.1
20260509065308 57 170 0.9 3.5 0.00 0.00 0.00 100 560.1
20260509064406 57 168 2.6 3.5 0.00 0.00 0.00 100 560.1
20260509063407 55 172 1.7 3.5 0.00 0.00 0.00 100 560.1
20260509062408 53 170 0.0 0.0 0.00 0.00 0.00 100 560.1
20260509061409 51 202 0.0 0.0 0.00 0.00 0.00 100 560.1
20260509060409 51 202 0.0 0.0 0.00 0.00 0.00 100 560.1
20260509055506 51 202 0.0 0.0 0.00 0.00 0.00 100 560.1
20260509054507 51 202 0.0 0.0 0.00 0.00 0.00 2 560.1
20260509053508 50 202 0.0 0.0 0.00 0.00 0.00 10 560.1
20260509052506 49 202 0.0 0.0 0.00 0.00 0.00 100 560.1
20260509051507 50 202 0.0 0.0 0.00 0.00 0.00 100 560.1
20260509050508 50 202 0.0 0.0 0.00 0.00 0.00 100 560.1
20260509045606 50 202 0.0 0.0 0.00 0.00 0.00 100 560.1
20260509043608 50 202 0.0 0.0 0.00 0.00 0.00 100 560.1
20260509042607 49 202 0.0 0.0 0.00 0.00 0.00 100 560.1
20260509041608 50 202 0.0 0.0 0.00 0.00 0.00 100 560.1
20260509040706 50 202 0.0 0.0 0.00 0.00 0.00 100 560.1
20260509035728 50 202 0.0 0.0 0.00 0.00 0.00 100 560.1
20260509034746 51 202 0.0 0.0 0.00 0.00 0.00 100 560.1
20260509033728 51 202 0.0 0.0 0.00 0.00 0.00 100 560.1
20260509032727 51 202 0.0 0.0 0.00 0.00 0.00 100 560.1
20260509031729 51 202 0.0 0.0 0.00 0.00 0.00 100 560.1
20260509030729 51 202 0.0 0.0 0.00 0.00 0.00 100 560.1
20260509024727 52 202 0.0 0.0 0.00 0.00 0.00 100 560.1
20260509022728 53 202 0.0 0.0 0.00 0.00 0.00 100 560.1
20260509020826 54 202 0.0 0.0 0.00 0.00 0.00 100 560.1
20260509020727 54 202 0.0 0.0 0.00 0.00 0.00 100 560.1
20260509012827 55 202 0.0 0.0 0.00 0.00 0.00 100 560.1
20260509012729 55 202 0.0 0.0 0.00 0.00 0.00 100 560.1
20260509011827 56 202 0.0 0.0 0.00 0.00 0.00 100 560.1
20260509010828 57 202 0.0 0.0 0.00 0.00 0.00 100 560.1
20260509005828 58 180 0.0 0.0 0.00 0.00 0.00 100 560.1
20260509003828 60 181 0.0 0.0 0.00 0.00 0.00 100 560.1
20260509002830 61 22 0.0 0.0 0.00 0.00 0.00 100 560.1
20260509001927 62 22 0.0 0.0 0.00 0.00 0.00 100 560.1
20260509001830 62 22 0.0 0.0 0.00 0.00 0.00 100 560.1
20260508235926 63 22 0.0 0.0 0.00 0.00 0.00 100 560.1
20260508234928 64 22 0.0 0.0 0.00 0.00 0.00 100 560.1
20260508233927 65 22 0.0 0.0 0.00 0.00 0.00 100 560.1
20260508233827 65 22 0.0 0.0 0.00 0.00 0.00 100 560.1
20260508232829 65 22 0.0 0.0 0.00 0.00 0.00 100 560.1
20260508232727 65 22 0.0 0.0 0.00 0.00 0.00 100 560.1
20260508230827 67 22 0.0 0.0 0.00 0.00 0.00 100 560.1
20260508224926 67 22 0.0 0.0 0.00 0.00 0.00 100 560.1
20260508223927 70 22 0.0 0.0 0.00 0.00 0.00 100 560.1
20260508222927 71 22 0.0 0.0 0.00 0.00 0.00 100 560.1
20260508221929 72 45 0.0 0.0 0.00 0.00 0.00 100 560.1
20260508214929 69 45 0.0 0.0 0.00 0.00 0.00 100 560.1
20260508213928 69 6 0.0 0.0 0.00 0.00 0.00 100 560.1
20260508212926 70 315 0.0 0.0 0.00 0.00 0.00 100 560.1
20260508212846 70 322 0.0 0.0 0.00 0.00 0.00 100 560.1